Tracking 28356 objects as of 7-Dec-2023
HD Live streaming from Space Station
objects crossing your sky now

STARLINK-30838

Track STARLINK-30838 now!
10-day predictions
STARLINK-30838 is classified as:


NORAD ID: 58211
Int'l Code: 2023-170F
Perigee: 525.0 km
Apogee: 525.4 km
Inclination: 43.0 °
Period: 95.0 minutes
Semi major axis: 6896 km
RCS: Unknown
Launch date: November 3, 2023
Source: United States (US)
Launch site: AIR FORCE EASTERN TEST RANGE (AFETR)
Your satellite tracking list
Your tracking list is empty




NASA's NSSDC Master Catalog

Two Line Element Set (TLE):
1 58211U 23170F   23341.48799222  .00006204  00000-0  32920-3 0  9997
2 58211  43.0005 351.0894 0000320 226.2634 133.8186 15.15952991  6420
Source of the keplerian elements: AFSPC